TimeEST,TemperatureF,Dew PointF,Humidity,Sea Level PressureIn,VisibilityMPH,Wind Direction,Wind SpeedMPH,Gust SpeedMPH,PrecipitationIn,Events,Conditions,WindDirDegrees,DateUTC
12:15 AM,24.8,14.0,64,29.98,10.0,Calm,Calm,-,N/A,,Clear,0,2014-02-26 05:15:00
12:35 AM,23.0,14.0,68,29.97,10.0,Calm,Calm,-,N/A,,Clear,0,2014-02-26 05:35:00
12:55 AM,23.0,14.0,68,29.96,10.0,Calm,Calm,-,N/A,,Clear,0,2014-02-26 05:55:00
1:15 AM,26.6,15.8,64,29.96,10.0,SSW,3.5,-,N/A,,Clear,200,2014-02-26 06:15:00
1:35 AM,28.4,15.8,59,29.94,10.0,South,3.5,-,N/A,,Clear,190,2014-02-26 06:35:00
1:55 AM,28.4,15.8,59,29.93,10.0,SSW,3.5,-,N/A,,Mostly Cloudy,200,2014-02-26 06:55:00
2:15 AM,28.4,15.8,59,29.93,10.0,South,3.5,-,N/A,,Overcast,180,2014-02-26 07:15:00
2:35 AM,26.6,14.0,59,29.92,10.0,Calm,Calm,-,N/A,,Overcast,0,2014-02-26 07:35:00
2:55 AM,26.6,15.8,64,29.90,10.0,Calm,Calm,-,N/A,,Overcast,0,2014-02-26 07:55:00
3:15 AM,28.4,15.8,59,29.90,10.0,Calm,Calm,-,N/A,,Overcast,0,2014-02-26 08:15:00
3:35 AM,28.4,15.8,59,29.90,10.0,Calm,Calm,-,N/A,,Overcast,0,2014-02-26 08:35:00
3:55 AM,28.4,17.6,64,29.90,10.0,NW,3.5,-,N/A,,Overcast,310,2014-02-26 08:55:00
4:15 AM,28.4,17.6,64,29.90,10.0,NW,3.5,-,N/A,,Overcast,320,2014-02-26 09:15:00
4:35 AM,28.4,17.6,64,29.90,10.0,WNW,3.5,-,N/A,,Overcast,300,2014-02-26 09:35:00
4:55 AM,30.2,19.4,64,29.90,10.0,West,6.9,-,N/A,,Overcast,260,2014-02-26 09:55:00
5:15 AM,30.2,19.4,64,29.90,10.0,WSW,5.8,-,N/A,,Overcast,240,2014-02-26 10:15:00
5:35 AM,30.2,19.4,64,29.90,10.0,Calm,Calm,-,N/A,,Overcast,0,2014-02-26 10:35:00
5:55 AM,30.2,19.4,64,29.90,10.0,WSW,4.6,-,N/A,,Overcast,250,2014-02-26 10:55:00
6:15 AM,30.2,19.4,64,29.90,10.0,West,8.1,-,N/A,,Overcast,270,2014-02-26 11:15:00
6:35 AM,30.2,17.6,60,29.91,10.0,West,10.4,-,N/A,,Overcast,270,2014-02-26 11:35:00
6:55 AM,30.2,19.4,64,29.90,10.0,West,9.2,-,N/A,,Overcast,280,2014-02-26 11:55:00
7:15 AM,30.2,19.4,64,29.90,10.0,West,8.1,-,N/A,,Overcast,280,2014-02-26 12:15:00
7:35 AM,30.2,19.4,64,29.93,10.0,WNW,11.5,-,N/A,,Overcast,290,2014-02-26 12:35:00
7:55 AM,28.4,21.2,74,29.94,2.0,WNW,15.0,-,N/A,Snow,Light Snow,300,2014-02-26 12:55:00
8:15 AM,28.4,21.2,74,29.95,1.8,WNW,17.3,21.9,N/A,Snow,Light Snow,300,2014-02-26 13:15:00
8:35 AM,28.4,21.2,74,29.97,7.0,West,11.5,-,N/A,Snow,Light Snow,280,2014-02-26 13:35:00
8:55 AM,28.4,19.4,69,29.98,10.0,West,11.5,17.3,N/A,,Overcast,280,2014-02-26 13:55:00
9:15 AM,28.4,19.4,69,29.99,10.0,NW,10.4,-,N/A,,Overcast,320,2014-02-26 14:15:00
9:35 AM,28.4,19.4,69,29.97,10.0,NW,15.0,-,N/A,,Mostly Cloudy,310,2014-02-26 14:35:00
9:55 AM,30.2,17.6,60,29.96,10.0,WNW,23.0,26.5,N/A,,Clear,300,2014-02-26 14:55:00
10:15 AM,30.2,14.0,51,29.96,10.0,WNW,15.0,26.5,N/A,,Clear,290,2014-02-26 15:15:00
10:35 AM,32.0,15.8,51,29.95,10.0,WNW,18.4,25.3,N/A,,Scattered Clouds,300,2014-02-26 15:35:00
10:55 AM,30.2,14.0,51,29.95,10.0,NNW,10.4,18.4,N/A,,Overcast,330,2014-02-26 15:55:00
11:15 AM,30.2,14.0,51,29.95,10.0,NW,12.7,21.9,N/A,,Overcast,310,2014-02-26 16:15:00
11:35 AM,30.2,14.0,51,29.94,10.0,WNW,19.6,24.2,N/A,,Mostly Cloudy,300,2014-02-26 16:35:00
11:55 AM,30.2,10.4,44,29.94,10.0,WNW,13.8,-,N/A,,Overcast,300,2014-02-26 16:55:00
12:15 PM,30.2,12.2,47,29.94,10.0,NW,11.5,18.4,N/A,,Overcast,310,2014-02-26 17:15:00
12:35 PM,32.0,12.2,44,29.92,10.0,WNW,13.8,-,N/A,,Mostly Cloudy,300,2014-02-26 17:35:00
12:55 PM,30.2,12.2,47,29.91,10.0,NW,17.3,24.2,N/A,,Mostly Cloudy,320,2014-02-26 17:55:00
1:15 PM,32.0,12.2,44,29.90,10.0,NNW,13.8,25.3,N/A,,Mostly Cloudy,330,2014-02-26 18:15:00
1:35 PM,32.0,12.2,44,29.89,10.0,WNW,15.0,21.9,N/A,,Mostly Cloudy,290,2014-02-26 18:35:00
1:55 PM,32.0,8.6,38,29.88,10.0,WNW,19.6,26.5,N/A,,Scattered Clouds,300,2014-02-26 18:55:00
2:15 PM,32.0,8.6,38,29.88,10.0,NNW,17.3,20.7,N/A,,Clear,330,2014-02-26 19:15:00
2:35 PM,32.0,8.6,38,29.87,10.0,NNW,8.1,18.4,N/A,,Clear,330,2014-02-26 19:35:00
3:00 PM,32.0,8.6,38,29.87,10.0,NNW,13.8,24.2,N/A,,Clear,330,2014-02-26 20:00:00
3:15 PM,32.0,8.6,38,29.86,10.0,North,9.2,18.4,N/A,,Clear,350,2014-02-26 20:15:00
3:35 PM,32.0,8.6,38,29.85,10.0,NW,11.5,20.7,N/A,,Clear,310,2014-02-26 20:35:00
3:55 PM,32.0,8.6,38,29.85,10.0,NW,13.8,-,N/A,,Clear,320,2014-02-26 20:55:00
4:15 PM,32.0,6.8,35,29.85,10.0,NNW,6.9,19.6,N/A,,Clear,340,2014-02-26 21:15:00
4:35 PM,32.0,6.8,35,29.84,10.0,NNW,6.9,19.6,N/A,,Clear,330,2014-02-26 21:35:00
4:55 PM,32.0,5.0,32,29.84,10.0,WNW,9.2,17.3,N/A,,Clear,300,2014-02-26 21:55:00
5:15 PM,30.2,6.8,37,29.83,10.0,NW,9.2,-,N/A,,Clear,310,2014-02-26 22:15:00
5:35 PM,30.2,5.0,34,29.83,10.0,NW,9.2,-,N/A,,Clear,320,2014-02-26 22:35:00
5:55 PM,28.4,5.0,37,29.83,10.0,NW,10.4,-,N/A,,Clear,320,2014-02-26 22:55:00
6:15 PM,28.4,3.2,34,29.84,10.0,NNW,6.9,-,N/A,,Clear,340,2014-02-26 23:15:00
6:35 PM,26.6,5.0,40,29.84,10.0,NW,6.9,-,N/A,,Clear,320,2014-02-26 23:35:00
6:55 PM,28.4,5.0,37,29.85,10.0,NNW,3.5,-,N/A,,Clear,340,2014-02-26 23:55:00
7:15 PM,26.6,5.0,40,29.85,10.0,NNW,3.5,-,N/A,,Clear,340,2014-02-27 00:15:00
7:35 PM,26.6,5.0,40,29.85,10.0,NNW,6.9,-,N/A,,Clear,340,2014-02-27 00:35:00
7:55 PM,26.6,5.0,40,29.84,10.0,NNW,3.5,-,N/A,,Clear,340,2014-02-27 00:55:00
8:15 PM,26.6,3.2,37,29.84,10.0,Calm,Calm,-,N/A,,Clear,0,2014-02-27 01:15:00
8:35 PM,26.6,3.2,37,29.84,10.0,North,3.5,-,N/A,,Clear,350,2014-02-27 01:35:00
8:55 PM,26.6,3.2,37,29.84,10.0,North,4.6,-,N/A,,Clear,350,2014-02-27 01:55:00
9:15 PM,24.8,5.0,43,29.85,10.0,Calm,Calm,-,N/A,,Clear,0,2014-02-27 02:15:00
9:35 PM,23.0,5.0,46,29.85,10.0,Calm,Calm,-,N/A,,Clear,0,2014-02-27 02:35:00
9:55 PM,21.2,5.0,50,29.85,10.0,Calm,Calm,-,N/A,,Clear,0,2014-02-27 02:55:00
10:15 PM,19.4,8.6,63,29.84,10.0,Calm,Calm,-,N/A,,Clear,0,2014-02-27 03:15:00
10:35 PM,17.6,8.6,68,29.84,10.0,Calm,Calm,-,N/A,,Clear,0,2014-02-27 03:35:00
10:55 PM,17.6,8.6,68,29.84,10.0,Calm,Calm,-,N/A,,Clear,0,2014-02-27 03:55:00
11:15 PM,19.4,8.6,63,29.85,10.0,Calm,Calm,-,N/A,,Clear,0,2014-02-27 04:15:00
11:35 PM,19.4,8.6,63,29.84,10.0,Calm,Calm,-,N/A,,Clear,0,2014-02-27 04:35:00
11:55 PM,19.4,8.6,63,29.84,10.0,Calm,Calm,-,N/A,,Clear,0,2014-02-27 04:55:00